Canby, MN

11:57 PM CDT on July 20, 2017 (GMT -0500)
Canby

Weather History for KCNB - November, 2012

Change the Weather History Date:

Sunday, November 11, 2012

  Actual Average (KMML) Record (KMML)
Temperature  
Mean Temperature 27 °F -  
Max Temperature 35 °F 42 °F 66 °F (2005)
Min Temperature 19 °F 25 °F -4 °F (1986)
Degree Days  
Heating Degree Days 38    
Moisture  
Dew Point 17 °F    
Average Humidity 74    
Maximum Humidity 94    
Minimum Humidity 64    
Precipitation  
Precipitation 0.07 in - - ()
Sea Level Pressure  
Sea Level Pressure 29.86 in    
Wind  
Wind Speed 20 mph (West)    
Max Wind Speed 26 mph    
Max Gust Speed 37 mph    
Visibility 10 miles    
Events Snow    
Averages and records for this station are not official NWS values.
T = Trace of Precipitation, MM = Missing Value Source: NWS Daily Summary

Daily Weather History Graph

Daily Weather History Graph

Search for Another Location

Airport or City:

Trip Planner

Search our weather history database for the weather conditions in past years. The results will help you decide how hot, cold, wet, or windy it might be!

Date:

Astronomy

Nov. 11, 2012 Rise Set
Actual Time 7:17 AM CST 5:00 PM CST
Civil Twilight 6:45 AM CST 5:31 PM CST
Nautical Twilight 6:10 AM CST 6:06 PM CST
Astronomical Twilight 5:36 AM CST 6:41 PM CST
Moon 4:27 AM CST (11/11) 3:28 PM CST (11/11)
Length of Visible Light 10h 45m
Length of Day
9h 43m
Waning Crescent, 7% of the Moon is Illuminated
Nov 11
Waning Crescent
Nov 13
New
Nov 20
First Quarter
Nov 28
Full
Dec 6
Last Quarter

Hourly Weather History & Observations

Time (CST) Temp. Windchill Dew Point Humidity Pressure Visibility Wind Dir Wind Speed Gust Speed Precip Events Conditions
12:15 AM 35.6 °F 24.8 °F 32.7 °F 89% 29.65 in 10.0 mi WNW 19.6 mph 23.0 mph N/A   Overcast
12:35 AM 35.1 °F 23.8 °F 32.2 °F 89% 29.66 in 10.0 mi WNW 20.7 mph 25.3 mph N/A   Overcast
12:54 AM 33.3 °F 22.1 °F 31.6 °F 94% 29.66 in 10.0 mi West 18.4 mph 25.3 mph N/A   Overcast
1:15 AM 32.9 °F 22.8 °F 30.2 °F 90% 29.68 in 10.0 mi WNW 15.0 mph 26.5 mph N/A   Overcast
1:35 AM 32.0 °F 20.1 °F 28.9 °F 88% 29.68 in 10.0 mi West 19.6 mph - N/A   Overcast
1:54 AM 31.8 °F 19.9 °F 28.8 °F 88% 29.67 in 10.0 mi West 19.6 mph - N/A   Overcast
2:15 AM 30.9 °F 19.1 °F 27.3 °F 86% 29.68 in 10.0 mi WNW 18.4 mph 23.0 mph N/A   Overcast
2:35 AM 30.9 °F 18.7 °F 27.0 °F 85% 29.70 in 10.0 mi WNW 19.6 mph 25.3 mph N/A   Overcast
2:54 AM 30.6 °F 19.4 °F 26.1 °F 83% 29.71 in 10.0 mi WNW 16.1 mph 26.5 mph N/A   Overcast
3:15 AM 30.2 °F 18.5 °F 25.9 °F 84% 29.72 in 10.0 mi WNW 17.3 mph 25.3 mph N/A   Overcast
3:35 AM 29.3 °F 16.2 °F 25.3 °F 85% 29.74 in 10.0 mi WNW 20.7 mph - N/A   Overcast
3:55 AM 28.4 °F 15.4 °F 23.9 °F 83% 29.75 in 10.0 mi West 19.6 mph 26.5 mph N/A   Overcast
4:14 AM 28.4 °F 15.1 °F 23.5 °F 82% 29.76 in 10.0 mi WNW 20.7 mph 29.9 mph N/A   Overcast
4:35 AM 28.0 °F 13.9 °F 23.2 °F 82% 29.76 in 10.0 mi West 23.0 mph 28.8 mph N/A   Overcast
5:34 AM 26.6 °F 11.7 °F 21.4 °F 81% 29.77 in 10.0 mi WNW 24.2 mph 31.1 mph N/A   Overcast
5:55 AM 26.2 °F 11.2 °F 20.8 °F 80% 29.80 in 10.0 mi WNW 24.2 mph 28.8 mph N/A   Overcast
6:15 AM 25.5 °F 10.3 °F 19.9 °F 79% 29.80 in 10.0 mi West 24.2 mph 28.8 mph N/A   Mostly Cloudy
6:55 AM 25.3 °F 11.4 °F 20.1 °F 81% 29.82 in 10.0 mi West 19.6 mph 27.6 mph N/A   Overcast
7:35 AM 24.3 °F 9.3 °F 19.4 °F 82% 29.82 in 10.0 mi WNW 21.9 mph 25.3 mph N/A   Overcast
7:55 AM 23.5 °F 9.9 °F 18.3 °F 80% 29.85 in 10.0 mi West 17.3 mph 23.0 mph N/A   Overcast
8:14 AM 23.0 °F 8.0 °F 17.4 °F 79% 29.84 in 10.0 mi WNW 20.7 mph 26.5 mph N/A   Overcast
8:54 AM 22.1 °F 8.0 °F 16.5 °F 79% 29.86 in 10.0 mi West 17.3 mph 25.3 mph N/A   Scattered Clouds
9:15 AM 22.5 °F 9.9 °F 16.2 °F 77% 29.85 in 10.0 mi WNW 13.8 mph 24.2 mph N/A   Scattered Clouds
9:35 AM 23.0 °F 8.7 °F 16.5 °F 76% 29.85 in 10.0 mi WNW 18.4 mph - N/A   Scattered Clouds
9:55 AM 23.2 °F 9.8 °F 16.5 °F 76% 29.87 in 10.0 mi West 16.1 mph - N/A   Clear
10:15 AM 23.5 °F 9.4 °F 16.2 °F 73% 29.87 in 10.0 mi West 18.4 mph 25.3 mph N/A   Clear
10:34 AM 24.4 °F 11.0 °F 16.9 °F 73% 29.87 in 10.0 mi West 17.3 mph - N/A   Clear
10:55 AM 24.6 °F 10.1 °F 16.9 °F 72% 29.86 in 10.0 mi West 20.7 mph 24.2 mph N/A   Clear
11:15 AM 24.8 °F 11.5 °F 16.2 °F 70% 29.88 in 10.0 mi West 17.3 mph 27.6 mph N/A   Clear
11:35 AM 24.6 °F 10.5 °F 16.3 °F 71% 29.87 in 10.0 mi West 19.6 mph 28.8 mph N/A   Clear
12:15 PM 24.4 °F 10.6 °F 16.5 °F 72% 29.89 in 10.0 mi West 18.4 mph 21.9 mph N/A   Clear
12:35 PM 25.0 °F 12.2 °F 16.2 °F 69% 29.88 in 10.0 mi West 16.1 mph 23.0 mph N/A   Scattered Clouds
12:55 PM 25.5 °F 11.3 °F 16.3 °F 68% 29.87 in 10.0 mi West 20.7 mph - N/A   Scattered Clouds
1:14 PM 25.5 °F 11.3 °F 15.4 °F 66% 29.87 in 10.0 mi West 20.7 mph 27.6 mph N/A   Scattered Clouds
1:35 PM 25.3 °F 9.7 °F 15.8 °F 67% 29.86 in 10.0 mi West 25.3 mph 32.2 mph N/A   Clear
1:55 PM 26.1 °F 11.6 °F 17.1 °F 69% 29.85 in 10.0 mi West 21.9 mph 26.5 mph N/A   Clear
2:15 PM 25.2 °F 10.4 °F 14.9 °F 65% 29.87 in 10.0 mi West 21.9 mph 28.8 mph N/A   Scattered Clouds
2:35 PM 25.5 °F 10.6 °F 15.6 °F 66% 29.88 in 10.0 mi West 23.0 mph 26.5 mph N/A   Scattered Clouds
2:55 PM 24.3 °F 9.3 °F 13.6 °F 64% 29.88 in 10.0 mi West 21.9 mph 29.9 mph N/A   Scattered Clouds
3:15 PM 24.4 °F 11.0 °F 14.5 °F 66% 29.88 in 10.0 mi West 17.3 mph 28.8 mph N/A   Clear
3:35 PM 23.9 °F 8.8 °F 13.3 °F 64% 29.89 in 10.0 mi West 21.9 mph 28.8 mph N/A   Clear
3:55 PM 23.0 °F 6.6 °F 12.6 °F 64% 29.90 in 10.0 mi West 25.3 mph 32.2 mph N/A   Clear
4:14 PM 22.8 °F 6.7 °F 13.1 °F 66% 29.90 in 10.0 mi West 24.2 mph 29.9 mph N/A   Clear
4:35 PM 21.9 °F 7.8 °F 13.3 °F 69% 29.91 in 10.0 mi West 17.3 mph 27.6 mph N/A   Clear
4:55 PM 21.2 °F 4.9 °F 12.9 °F 70% 29.91 in 10.0 mi West 23.0 mph 31.1 mph N/A   Clear
5:15 PM 20.8 °F 3.4 °F 11.7 °F 68% 29.92 in 10.0 mi West 26.5 mph 36.8 mph N/A   Scattered Clouds
5:35 PM 20.7 °F 6.6 °F 13.1 °F 73% 29.94 in 10.0 mi West 16.1 mph 23.0 mph N/A   Mostly Cloudy
5:54 PM 20.7 °F 6.1 °F 12.4 °F 70% 29.95 in 10.0 mi West 17.3 mph 26.5 mph N/A Snow Light Snow
6:15 PM 20.8 °F 5.1 °F 12.6 °F 70% 29.95 in 10.0 mi West 20.7 mph 25.3 mph N/A   Overcast
6:34 PM 21.0 °F 6.2 °F 12.2 °F 69% 29.96 in 10.0 mi West 18.4 mph 25.3 mph N/A   Overcast
6:55 PM 21.2 °F 4.2 °F 11.5 °F 66% 29.96 in 10.0 mi West 25.3 mph 31.1 mph N/A   Overcast
7:15 PM 21.2 °F 6.4 °F 12.4 °F 69% 29.96 in 10.0 mi West 18.4 mph 25.3 mph N/A   Overcast
7:35 PM 21.2 °F 6.4 °F 12.4 °F 69% 29.96 in 10.0 mi West 18.4 mph 26.5 mph N/A Snow Light Snow
7:55 PM 21.2 °F 6.4 °F 12.2 °F 68% 29.96 in 10.0 mi West 18.4 mph - N/A   Overcast
8:15 PM 21.6 °F 5.3 °F 12.0 °F 67% 29.96 in 10.0 mi West 23.0 mph 29.9 mph N/A   Overcast
8:34 PM 21.2 °F 5.2 °F 11.1 °F 65% 29.96 in 10.0 mi West 21.9 mph 32.2 mph N/A   Overcast
8:55 PM 20.8 °F 5.5 °F 11.7 °F 68% 29.97 in 10.0 mi West 19.6 mph 25.3 mph N/A   Overcast
9:15 PM 20.7 °F 6.1 °F 12.0 °F 69% 29.97 in 10.0 mi West 17.3 mph 23.0 mph N/A   Overcast
9:35 PM 19.8 °F 4.5 °F 10.4 °F 67% 29.97 in 10.0 mi West 18.4 mph 27.6 mph N/A   Scattered Clouds
9:55 PM 19.6 °F 5.7 °F 10.9 °F 69% 29.97 in 10.0 mi West 15.0 mph 26.5 mph N/A   Clear
10:15 PM 19.4 °F 3.6 °F 11.7 °F 72% 29.97 in 10.0 mi West 19.6 mph 25.3 mph N/A   Clear
10:35 PM 19.4 °F 4.5 °F 11.8 °F 72% 29.97 in 10.0 mi West 17.3 mph 23.0 mph N/A   Clear
10:54 PM 19.4 °F 5.0 °F 12.2 °F 74% 29.96 in 10.0 mi West 16.1 mph 27.6 mph N/A   Scattered Clouds
11:15 PM 19.4 °F 4.1 °F 12.7 °F 75% 29.97 in 10.0 mi West 18.4 mph - N/A   Clear
11:35 PM 19.9 °F 4.3 °F 13.5 °F 76% 29.97 in 10.0 mi West 19.6 mph 24.2 mph N/A   Mostly Cloudy
11:55 PM 19.9 °F 5.2 °F 14.0 °F 78% 29.97 in 10.0 mi West 17.3 mph 20.7 mph N/A Snow Light Snow